SITRO-AIS 10 (BURDAEV)

Last updated on Sat Aug 15 2026 00:03:45 GMT+0000 (Coordinated Universal Time)

1 57199U 23091AK 26226.61143066 .00013246 00000+0 32704-3 0 9995 2 57199 97.5039 298.6265 0005733 205.8018 154.2943 15.40626382173754
UTC large
Height (km)
Speed (km/s)
/
Latitude / Longitude
Inclination (degrees)
Orbital Period (minutes)
Azimuth
Elevation
Range (km)
Doppler Factor

Next 0 passes for location: London (51.5072 / 0.1276)

No passes found over London.